Location: Newark
(37.8333°N, 119.5000°W)
Time: 20:54:35
(UTC+00:00)

Tiros 1 despin weight - Pass Details

Date: 27 August 2019
Orbit: 595 x 642 km, 48.2° (Epoch: 15 September)

Event Time Altitude Azimuth Distance (km) Brightness Sun altitude
Rises 13:10:14 0° 287° (WNW) 2,885 ? -3.4°
Reaches altitude 10° 13:13:24 10° 264° (W) 1,986 ? -2.8°
Maximum altitude 13:15:58 15° 229° (SW) 1,689 ? -2.3°
Drops below altitude 10° 13:18:33 10° 195° (SSW) 1,996 ? -1.8°
Sets 13:21:46 0° 172° (S) 2,908 ? -1.2°
